19-12-2022, 00:00:05,    136,    3.3,    8.0,   0.00,   0.00, 1003.1,    0.0, -999.0
19-12-2022, 00:00:15,    180,    2.1,    7.9,   0.00,   0.00, 1003.1,    0.0, -999.0
19-12-2022, 00:00:25,    186,    0.5,    8.0,   0.00,   0.00, 1003.1,    0.0, -999.0
19-12-2022, 00:00:35,    160,    0.6,    8.0,   0.00,   0.00, 1003.1,    0.0, -999.0
19-12-2022, 00:00:45,    154,    0.6,    8.0,   0.00,   0.00, 1003.1,    0.1, -999.0
19-12-2022, 00:00:55,    153,    0.4,    8.0,   0.00,   0.00, 1003.1,    0.0, -999.0
19-12-2022, 00:01:05,    127,    1.8,    8.0,   0.00,   0.00, 1003.1,    0.0, -999.0
19-12-2022, 00:01:15,    192,    2.7,    8.1,   0.00,   0.00, 1003.1,    0.0, -999.0
19-12-2022, 00:01:25,    167,    0.7,    8.1,   0.00,   0.00, 1003.1,    0.0, -999.0
19-12-2022, 00:01:35,     95,    1.4,    8.1,   0.00,   0.00, 1003.2,    0.0, -999.0
19-12-2022, 00:01:45,    231,    0.1,    8.0,   0.00,   0.00, 1003.0,    0.1, -999.0
19-12-2022, 00:01:55,    140,    0.6,    8.0,   0.00,   0.00, 1003.1,    0.0, -999.0
19-12-2022, 00:02:05,    155,    1.2,    8.0,   0.00,   0.00, 1003.1,    0.0, -999.0
19-12-2022, 00:02:15,    170,    1.7,    8.0,   0.00,   0.00, 1003.1,    0.0, -999.0
19-12-2022, 00:02:25,    170,    0.4,    8.0,   0.00,   0.00, 1003.1,    0.0, -999.0
19-12-2022, 00:02:35,    170,    0.0,    8.0,   0.00,   0.00, 1003.0,    0.1, -999.0
19-12-2022, 00:02:45,    182,    1.8,    8.0,   0.00,   0.00, 1003.1,    0.1, -999.0
19-12-2022, 00:02:55,    185,    0.7,    8.0,   0.00,   0.00, 1003.1,    0.0, -999.0
19-12-2022, 00:03:05,    185,    0.2,    8.0,   0.00,   0.00, 1003.1,    0.0, -999.0
19-12-2022, 00:03:15,    194,    0.7,    7.9,   0.00,   0.00, 1003.1,    0.1, -999.0
19-12-2022, 00:03:25,    156,    1.2,    8.0,   0.00,   0.00, 1003.1,    0.0, -999.0
19-12-2022, 00:03:35,    175,    1.4,    8.0,   0.00,   0.00, 1003.1,    0.1, -999.0
19-12-2022, 00:03:45,    157,    0.9,    8.0,   0.00,   0.00, 1003.1,    0.0, -999.0
19-12-2022, 00:03:55,    222,    1.8,    8.0,   0.00,   0.00, 1003.1,    0.0, -999.0
19-12-2022, 00:04:05,    127,    1.3,    8.0,   0.00,   0.00, 1003.1,    0.0, -999.0
19-12-2022, 00:04:15,    135,    1.4,    8.0,   0.00,   0.00, 1003.1,    0.0, -999.0
19-12-2022, 00:04:25,    141,    1.6,    8.0,   0.00,   0.00, 1003.1,    0.0, -999.0
19-12-2022, 00:04:35,    133,    3.0,    8.0,   0.00,   0.00, 1003.0,    0.0, -999.0
19-12-2022, 00:04:45,    152,    3.3,    8.1,   0.00,   0.00, 1003.1,    0.0, -999.0
19-12-2022, 00:04:55,    198,    2.9,    8.1,   0.00,   0.00, 1003.1,    0.0, -999.0
19-12-2022, 00:05:05,    190,    0.4,    8.0,   0.00,   0.00, 1003.0,    0.0, -999.0
19-12-2022, 00:05:15,    190,    0.0,    7.9,   0.00,   0.00, 1003.0,    0.0, -999.0
19-12-2022, 00:05:25,    110,    1.2,    8.0,   0.00,   0.00, 1003.1,    0.0, -999.0
19-12-2022, 00:05:35,    129,    0.1,    8.0,   0.00,   0.00, 1003.0,    0.1, -999.0
19-12-2022, 00:05:44,    162,    0.9,    8.0,   0.00,   0.00, 1003.1,    0.0, -999.0
19-12-2022, 00:05:55,    144,    1.6,    8.1,   0.00,   0.00, 1003.1,    0.0, -999.0
19-12-2022, 00:06:05,    153,    1.6,    8.1,   0.00,   0.00, 1003.1,    0.0, -999.0
19-12-2022, 00:06:14,    121,    1.0,    8.1,   0.00,   0.00, 1003.1,    0.0, -999.0
19-12-2022, 00:06:24,    131,    3.1,    8.1,   0.00,   0.00, 1003.1,    0.0, -999.0
19-12-2022, 00:06:35,    123,    2.3,    8.1,   0.00,   0.00, 1003.1,    0.0, -999.0
19-12-2022, 00:06:45,    141,    1.6,    8.2,   0.00,   0.00, 1003.1,    0.2, -999.0
19-12-2022, 00:06:54,    289,    1.8,    8.1,   0.00,   0.00, 1003.1,    0.0, -999.0
19-12-2022, 00:07:05,    165,    1.0,    8.2,   0.00,   0.00, 1003.1,    0.1, -999.0
19-12-2022, 00:07:15,    162,    3.1,    8.2,   0.00,   0.00, 1003.1,    0.0, -999.0
19-12-2022, 00:07:24,    172,    1.2,    8.1,   0.00,   0.00, 1003.1,    0.1, -999.0
19-12-2022, 00:07:34,    165,    1.0,    8.1,   0.00,   0.00, 1003.1,    0.0, -999.0
19-12-2022, 00:07:45,    127,    2.6,    8.2,   0.00,   0.00, 1003.1,    0.0, -999.0
19-12-2022, 00:07:54,    128,    1.4,    8.1,   0.00,   0.00, 1003.1,    0.0, -999.0
19-12-2022, 00:08:04,    150,    1.5,    8.2,   0.00,   0.00, 1003.1,    0.0, -999.0
19-12-2022, 00:08:14,    203,    1.5,    8.1,   0.00,   0.00, 1003.1,    0.0, -999.0
19-12-2022, 00:08:25,    203,    0.5,    8.1,   0.00,   0.00, 1003.1,    0.0, -999.0
19-12-2022, 00:08:34,    146,    0.8,    8.0,   0.00,   0.00, 1003.1,    0.0, -999.0
19-12-2022, 00:08:44,    180,    1.7,    8.1,   0.00,   0.00, 1003.1,    0.0, -999.0
19-12-2022, 00:08:54,    157,    1.8,    8.1,   0.00,   0.00, 1003.1,    0.0, -999.0
19-12-2022, 00:09:04,    170,    3.3,    8.2,   0.00,   0.00, 1003.1,    0.0, -999.0
19-12-2022, 00:09:14,    194,    3.6,    8.2,   0.00,   0.00, 1003.1,    0.0, -999.0
19-12-2022, 00:09:24,    182,    2.6,    8.2,   0.00,   0.00, 1003.1,    0.0, -999.0
19-12-2022, 00:09:34,    175,    2.4,    8.2,   0.00,   0.00, 1003.1,    0.0, -999.0
19-12-2022, 00:09:44,    150,    1.5,    8.1,   0.00,   0.00, 1003.1,    0.1, -999.0
19-12-2022, 00:09:54,    202,    0.7,    8.1,   0.00,   0.00, 1003.1,    0.0, -999.0
19-12-2022, 00:10:04,    212,    0.6,    8.1,   0.00,   0.00, 1003.1,    0.0, -999.0
19-12-2022, 00:10:14,    154,    1.4,    8.2,   0.00,   0.00, 1003.1,    0.0, -999.0
19-12-2022, 00:10:24,    175,    3.8,    8.1,   0.00,   0.00, 1003.1,    0.0, -999.0
19-12-2022, 00:10:34,    166,    1.0,    8.1,   0.00,   0.00, 1003.1,    0.0, -999.0
19-12-2022, 00:10:44,    165,    0.5,    8.1,   0.00,   0.00, 1003.1,    0.0, -999.0
19-12-2022, 00:10:54,    142,    0.9,    8.2,   0.00,   0.00, 1003.1,    0.0, -999.0
19-12-2022, 00:11:04,    170,    1.6,    8.2,   0.00,   0.00, 1003.1,    0.0, -999.0
19-12-2022, 00:11:14,    172,    1.3,    8.2,   0.00,   0.00, 1003.1,    0.0, -999.0
19-12-2022, 00:11:24,    173,    1.3,    8.1,   0.00,   0.00, 1003.2,    0.1, -999.0
19-12-2022, 00:11:34,    215,    1.4,    8.1,   0.00,   0.00, 1003.1,    0.1, -999.0
19-12-2022, 00:11:44,    196,    0.5,    8.2,   0.00,   0.00, 1003.1,    0.0, -999.0
19-12-2022, 00:11:54,    195,    0.0,    8.1,   0.00,   0.00, 1003.0,    0.1, -999.0
19-12-2022, 00:12:04,    173,    1.2,    8.1,   0.00,   0.00, 1003.1,    0.0, -999.0
19-12-2022, 00:12:14,    129,    0.8,    8.1,   0.00,   0.00, 1003.1,    0.0, -999.0
19-12-2022, 00:12:24,    161,    1.0,    8.1,   0.00,   0.00, 1003.1,    0.0, -999.0
19-12-2022, 00:12:34,    154,    2.7,    8.1,   0.00,   0.00, 1003.1,    0.1, -999.0
19-12-2022, 00:12:44,    206,    1.2,    8.1,   0.00,   0.00, 1003.1,    0.1, -999.0
19-12-2022, 00:12:54,    166,    0.3,    8.1,   0.00,   0.00, 1003.1,    0.0, -999.0
19-12-2022, 00:13:04,    167,    2.4,    8.2,   0.00,   0.00, 1003.1,    0.0, -999.0
19-12-2022, 00:13:14,    155,    1.9,    8.2,   0.00,   0.00, 1003.1,    0.0, -999.0
19-12-2022, 00:13:24,    179,    3.0,    8.2,   0.00,   0.00, 1003.1,    0.0, -999.0
19-12-2022, 00:13:34,    211,    1.4,    8.2,   0.00,   0.00, 1003.1,    0.0, -999.0
19-12-2022, 00:13:44,    158,    1.3,    8.2,   0.00,   0.00, 1003.1,    0.1, -999.0
19-12-2022, 00:13:54,    128,    2.2,    8.2,   0.00,   0.00, 1003.1,    0.0, -999.0
19-12-2022, 00:14:04,    173,    1.3,    8.1,   0.00,   0.00, 1003.1,    0.0, -999.0
19-12-2022, 00:14:14,    188,    0.3,    8.2,   0.00,   0.00, 1003.1,    0.1, -999.0
19-12-2022, 00:14:24,    187,    0.2,    8.1,   0.00,   0.00, 1003.0,    0.0, -999.0
19-12-2022, 00:14:33,    152,    3.3,    8.2,   0.00,   0.00, 1003.1,    0.0, -999.0
19-12-2022, 00:14:44,    138,    2.8,    8.2,   0.00,   0.00, 1003.1,    0.0, -999.0
19-12-2022, 00:14:54,    192,    3.7,    8.2,   0.00,   0.00, 1003.1,    0.1, -999.0
19-12-2022, 00:15:03,    172,    1.9,    8.2,   0.00,   0.00, 1003.1,    0.0, -999.0
19-12-2022, 00:15:13,    150,    1.2,    8.2,   0.00,   0.00, 1003.0,    0.0, -999.0
19-12-2022, 00:15:24,    133,    2.1,    8.3,   0.00,   0.00, 1003.1,    0.1, -999.0
19-12-2022, 00:15:34,    140,    1.5,    8.3,   0.00,   0.00, 1003.1,    0.0, -999.0
19-12-2022, 00:15:43,    163,    2.0,    8.2,   0.00,   0.00, 1003.1,    0.0, -999.0
19-12-2022, 00:15:54,    176,    1.3,    8.1,   0.00,   0.00, 1003.1,    0.0, -999.0
19-12-2022, 00:16:04,    127,    0.9,    8.2,   0.00,   0.00, 1003.1,    0.0, -999.0
19-12-2022, 00:16:13,    137,    0.6,    8.1,   0.00,   0.00, 1003.0,    0.0, -999.0
19-12-2022, 00:16:23,    222,    2.6,    8.2,   0.00,   0.00, 1003.1,    0.0, -999.0
19-12-2022, 00:16:34,    139,    0.8,    8.2,   0.00,   0.00, 1003.1,    0.2, -999.0
19-12-2022, 00:16:43,    165,    1.3,    8.2,   0.00,   0.00, 1003.1,    0.0, -999.0
19-12-2022, 00:16:53,    166,    0.5,    8.2,   0.00,   0.00, 1003.1,    0.0, -999.0
19-12-2022, 00:17:03,    166,    1.3,    8.2,   0.00,   0.00, 1003.1,    0.0, -999.0
19-12-2022, 00:17:13,    176,    3.2,    8.2,   0.00,   0.00, 1003.1,    0.0, -999.0
19-12-2022, 00:17:23,    162,    2.2,    8.3,   0.00,   0.00, 1003.1,    0.0, -999.0
19-12-2022, 00:17:33,    132,    1.8,    8.2,   0.00,   0.00, 1003.1,    0.0, -999.0
19-12-2022, 00:17:43,    154,    2.1,    8.3,   0.00,   0.00, 1003.1,    0.0, -999.0
19-12-2022, 00:17:53,    140,    1.5,    8.3,   0.00,   0.00, 1003.1,    0.0, -999.0
19-12-2022, 00:18:03,    140,    0.1,    8.2,   0.00,   0.00, 1003.0,    0.0, -999.0
19-12-2022, 00:18:13,    160,    0.4,    8.2,   0.00,   0.00, 1002.9,    0.0, -999.0
19-12-2022, 00:18:23,    143,    3.4,    8.2,   0.00,   0.00, 1003.0,    0.0, -999.0
19-12-2022, 00:18:33,    140,    2.1,    8.4,   0.00,   0.00, 1003.0,    0.1, -999.0
19-12-2022, 00:18:43,    146,    2.5,    8.3,   0.00,   0.00, 1003.0,    0.0, -999.0
19-12-2022, 00:18:53,    148,    0.8,    8.2,   0.00,   0.00, 1003.0,    0.0, -999.0
19-12-2022, 00:19:03,    167,    1.6,    8.3,   0.00,   0.00, 1003.0,    0.0, -999.0
19-12-2022, 00:19:13,    175,    1.2,    8.3,   0.00,   0.00, 1003.0,    0.0, -999.0
19-12-2022, 00:19:23,    178,    1.8,    8.3,   0.00,   0.00, 1003.0,    0.0, -999.0
19-12-2022, 00:19:33,    129,    3.1,    8.3,   0.00,   0.00, 1003.0,    0.0, -999.0
19-12-2022, 00:19:43,    141,    1.4,    8.3,   0.00,   0.00, 1003.0,    0.0, -999.0
19-12-2022, 00:19:53,    141,    0.0,    8.2,   0.00,   0.00, 1002.9,    0.0, -999.0
19-12-2022, 00:20:03,    268,    1.0,    8.2,   0.00,   0.00, 1003.0,    0.0, -999.0
19-12-2022, 00:20:13,    161,    2.4,    8.3,   0.00,   0.00, 1003.0,    0.0, -999.0
19-12-2022, 00:20:23,    137,    1.6,    8.3,   0.00,   0.00, 1002.9,    0.0, -999.0
19-12-2022, 00:20:33,    239,    1.3,    8.3,   0.00,   0.00, 1003.0,    0.1, -999.0
19-12-2022, 00:20:43,    177,    0.9,    8.3,   0.00,   0.00, 1002.9,    0.0, -999.0
19-12-2022, 00:20:53,    181,    2.9,    8.3,   0.00,   0.00, 1003.0,    0.0, -999.0
19-12-2022, 00:21:03,    164,    1.1,    8.4,   0.00,   0.00, 1002.9,    0.0, -999.0
19-12-2022, 00:21:13,    164,    0.0,    8.2,   0.00,   0.00, 1002.8,    0.0, -999.0
19-12-2022, 00:21:23,    144,    0.7,    8.3,   0.00,   0.00, 1002.9,    0.0, -999.0
19-12-2022, 00:21:33,    161,    1.6,    8.4,   0.00,   0.00, 1002.9,    0.0, -999.0
19-12-2022, 00:21:43,    159,    0.9,    8.3,   0.00,   0.00, 1003.0,    0.0, -999.0
19-12-2022, 00:21:53,    242,    1.1,    8.3,   0.00,   0.00, 1003.0,    0.0, -999.0
19-12-2022, 00:22:03,    204,    0.2,    8.3,   0.00,   0.00, 1002.9,    0.0, -999.0
19-12-2022, 00:22:13,    175,    0.1,    8.2,   0.00,   0.00, 1002.9,    0.0, -999.0
19-12-2022, 00:22:23,    138,    0.0,    8.2,   0.00,   0.00, 1002.8,    0.0, -999.0
19-12-2022, 00:22:33,    173,    4.1,    8.3,   0.00,   0.00, 1003.0,    0.0, -999.0
19-12-2022, 00:22:42,    138,    3.0,    8.4,   0.00,   0.00, 1003.0,    0.0, -999.0
19-12-2022, 00:22:53,    154,    1.3,    8.4,   0.00,   0.00, 1003.0,    0.1, -999.0
19-12-2022, 00:23:03,    168,    1.7,    8.4,   0.00,   0.00, 1003.0,    0.1, -999.0
19-12-2022, 00:23:12,    168,    0.9,    8.3,   0.00,   0.00, 1002.9,    0.0, -999.0
19-12-2022, 00:23:22,    156,    3.3,    8.4,   0.00,   0.00, 1003.0,    0.0, -999.0
19-12-2022, 00:23:33,    146,    1.1,    8.4,   0.00,   0.00, 1002.9,    0.0, -999.0
19-12-2022, 00:23:43,    175,    0.7,    8.4,   0.00,   0.00, 1003.0,    0.0, -999.0
19-12-2022, 00:23:52,    212,    0.8,    8.4,   0.00,   0.00, 1003.0,    0.0, -999.0
19-12-2022, 00:24:03,    209,    0.1,    8.4,   0.00,   0.00, 1002.9,    0.0, -999.0
19-12-2022, 00:24:13,    209,    0.4,    8.2,   0.00,   0.00, 1002.9,    0.0, -999.0
19-12-2022, 00:24:22,    144,    0.8,    8.4,   0.00,   0.00, 1003.0,    0.1, -999.0
19-12-2022, 00:24:32,    213,    0.4,    8.3,   0.00,   0.00, 1002.9,    0.0, -999.0
19-12-2022, 00:24:43,    144,    2.0,    8.4,   0.00,   0.00, 1003.0,    0.0, -999.0
19-12-2022, 00:24:52,    178,    0.4,    8.4,   0.00,   0.00, 1002.9,    0.0, -999.0
19-12-2022, 00:25:02,    182,    1.3,    8.4,   0.00,   0.00, 1003.0,    0.0, -999.0
19-12-2022, 00:25:12,    146,    1.1,    8.4,   0.00,   0.00, 1003.0,    0.0, -999.0
19-12-2022, 00:25:23,    178,    1.6,    8.5,   0.00,   0.00, 1003.0,    0.0, -999.0
19-12-2022, 00:25:32,    125,    1.3,    8.4,   0.00,   0.00, 1003.0,    0.1, -999.0
19-12-2022, 00:25:42,    129,    0.0,    8.3,   0.00,   0.00, 1002.8,    0.0, -999.0
19-12-2022, 00:25:52,    151,    1.2,    8.4,   0.00,   0.00, 1002.9,    0.0, -999.0
19-12-2022, 00:26:02,    157,    0.1,    8.3,   0.00,   0.00, 1002.9,    0.0, -999.0
19-12-2022, 00:26:12,    172,    2.9,    8.4,   0.00,   0.00, 1002.9,    0.1, -999.0
19-12-2022, 00:26:22,    153,    0.3,    8.4,   0.00,   0.00, 1002.9,    0.0, -999.0
19-12-2022, 00:26:32,    238,    1.6,    8.4,   0.00,   0.00, 1003.0,    0.0, -999.0
19-12-2022, 00:26:42,    229,    0.3,    8.4,   0.00,   0.00, 1002.9,    0.0, -999.0
19-12-2022, 00:26:52,    186,    0.7,    8.4,   0.00,   0.00, 1003.0,    0.0, -999.0
19-12-2022, 00:27:02,    230,    1.3,    8.4,   0.00,   0.00, 1003.0,    0.0, -999.0
19-12-2022, 00:27:12,    195,    0.4,    8.4,   0.00,   0.00, 1002.9,    0.0, -999.0
19-12-2022, 00:27:22,    195,    0.0,    8.3,   0.00,   0.00, 1002.8,    0.0, -999.0
19-12-2022, 00:27:32,    195,    0.2,    8.3,   0.00,   0.00, 1002.9,    0.0, -999.0
19-12-2022, 00:27:42,    174,    0.0,    8.3,   0.00,   0.00, 1002.9,    0.0, -999.0
19-12-2022, 00:27:52,    172,    0.9,    8.4,   0.00,   0.00, 1002.9,    0.0, -999.0
19-12-2022, 00:28:02,     89,    0.2,    8.3,   0.00,   0.00, 1002.8,    0.0, -999.0
19-12-2022, 00:28:12,    153,    0.9,    8.4,   0.00,   0.00, 1003.0,    0.0, -999.0
19-12-2022, 00:28:22,    159,    1.7,    8.4,   0.00,   0.00, 1003.0,    0.0, -999.0
19-12-2022, 00:28:32,    134,    2.6,    8.5,   0.00,   0.00, 1003.0,    0.0, -999.0
19-12-2022, 00:28:42,    125,    2.5,    8.5,   0.00,   0.00, 1003.0,    0.0, -999.0
19-12-2022, 00:28:52,    165,    3.8,    8.5,   0.00,   0.00, 1002.9,    0.1, -999.0
19-12-2022, 00:29:02,    106,    4.3,    8.5,   0.00,   0.00, 1003.0,    0.0, -999.0
19-12-2022, 00:29:12,    157,    2.2,    8.5,   0.00,   0.00, 1002.9,    0.0, -999.0
19-12-2022, 00:29:22,    160,    0.9,    8.5,   0.00,   0.00, 1003.0,    0.0, -999.0
19-12-2022, 00:29:32,    124,    1.0,    8.5,   0.00,   0.00, 1002.9,    0.0, -999.0
19-12-2022, 00:29:42,    183,    4.3,    8.5,   0.00,   0.00, 1002.9,    0.0, -999.0
19-12-2022, 00:29:52,    167,    1.1,    8.5,   0.00,   0.00, 1002.9,    0.0, -999.0
19-12-2022, 00:30:02,    212,    2.5,    8.5,   0.00,   0.00, 1002.9,    0.0, -999.0
19-12-2022, 00:30:12,    130,    3.0,    8.4,   0.00,   0.00, 1003.0,    0.0, -999.0
19-12-2022, 00:30:22,    159,    1.7,    8.5,   0.00,   0.00, 1003.0,    0.0, -999.0
19-12-2022, 00:30:32,    157,    0.9,    8.5,   0.00,   0.00, 1002.9,    0.0, -999.0
19-12-2022, 00:30:42,    232,    0.8,    8.5,   0.00,   0.00, 1002.9,    0.0, -999.0
19-12-2022, 00:30:52,    171,    0.8,    8.5,   0.00,   0.00, 1002.9,    0.1, -999.0
19-12-2022, 00:31:02,    177,    0.3,    8.5,   0.00,   0.00, 1003.0,    0.0, -999.0
19-12-2022, 00:31:12,    181,    0.1,    8.4,   0.00,   0.00, 1003.0,    0.0, -999.0
19-12-2022, 00:31:22,    173,    1.2,    8.5,   0.00,   0.00, 1003.0,    0.0, -999.0
19-12-2022, 00:31:31,    150,    1.4,    8.4,   0.00,   0.00, 1003.0,    0.0, -999.0
19-12-2022, 00:31:42,    156,    0.1,    8.4,   0.00,   0.00, 1002.9,    0.0, -999.0
19-12-2022, 00:31:52,    157,    0.0,    8.4,   0.00,   0.00, 1002.8,    0.0, -999.0
19-12-2022, 00:32:01,    163,    0.1,    8.4,   0.00,   0.00, 1002.8,    0.0, -999.0
19-12-2022, 00:32:11,    182,    1.5,    8.5,   0.00,   0.00, 1002.9,    0.0, -999.0
19-12-2022, 00:32:22,    181,    0.5,    8.5,   0.00,   0.00, 1002.9,    0.0, -999.0
19-12-2022, 00:32:31,    195,    1.7,    8.5,   0.00,   0.00, 1002.9,    0.0, -999.0
19-12-2022, 00:32:41,    197,    0.3,    8.4,   0.00,   0.00, 1002.9,    0.1, -999.0
19-12-2022, 00:32:51,    123,    0.8,    8.4,   0.00,   0.00, 1002.9,    0.1, -999.0
19-12-2022, 00:33:02,    143,    1.3,    8.5,   0.00,   0.00, 1002.9,    0.0, -999.0
19-12-2022, 00:33:11,    167,    2.0,    8.5,   0.00,   0.00, 1002.9,    0.0, -999.0
19-12-2022, 00:33:21,    204,    3.3,    8.5,   0.00,   0.00, 1003.0,    0.0, -999.0
19-12-2022, 00:33:32,    201,    1.6,    8.5,   0.00,   0.00, 1003.0,    0.0, -999.0
19-12-2022, 00:33:41,    201,    0.2,    8.5,   0.00,   0.00, 1002.9,    0.0, -999.0
19-12-2022, 00:33:51,    167,    0.2,    8.4,   0.00,   0.00, 1002.9,    0.0, -999.0
19-12-2022, 00:34:01,    149,    0.6,    8.4,   0.00,   0.00, 1003.0,    0.0, -999.0
19-12-2022, 00:34:12,    168,    2.1,    8.5,   0.00,   0.00, 1003.0,    0.2, -999.0
19-12-2022, 00:34:21,    169,    0.5,    8.4,   0.00,   0.00, 1003.0,    0.0, -999.0
19-12-2022, 00:34:31,    223,    0.9,    8.5,   0.00,   0.00, 1003.0,    0.0, -999.0
19-12-2022, 00:34:41,    230,    0.6,    8.4,   0.00,   0.00, 1002.9,    0.0, -999.0
19-12-2022, 00:34:51,    161,    1.6,    8.4,   0.00,   0.00, 1002.9,    0.1, -999.0
19-12-2022, 00:35:01,    167,    0.0,    8.4,   0.00,   0.00, 1002.8,    0.2, -999.0
19-12-2022, 00:35:11,    191,    0.7,    8.5,   0.00,   0.00, 1003.0,    0.0, -999.0
19-12-2022, 00:35:21,    159,    1.4,    8.5,   0.00,   0.00, 1003.0,    0.0, -999.0
19-12-2022, 00:35:31,    119,    1.3,    8.5,   0.00,   0.00, 1002.9,    0.0, -999.0
19-12-2022, 00:35:41,    124,    0.0,    8.4,   0.00,   0.00, 1002.9,    0.0, -999.0
19-12-2022, 00:35:51,    162,    3.3,    8.5,   0.00,   0.00, 1003.0,    0.0, -999.0
19-12-2022, 00:36:01,    155,    1.5,    8.5,   0.00,   0.00, 1002.9,    0.0, -999.0
19-12-2022, 00:36:11,    169,    1.6,    8.5,   0.00,   0.00, 1002.9,    0.0, -999.0
19-12-2022, 00:36:21,    169,    0.4,    8.5,   0.00,   0.00, 1002.9,    0.0, -999.0
19-12-2022, 00:36:31,    171,    0.1,    8.3,   0.00,   0.00, 1002.8,    0.0, -999.0
19-12-2022, 00:36:41,    143,    1.3,    8.5,   0.00,   0.00, 1003.0,    0.0, -999.0
19-12-2022, 00:36:51,    136,    0.5,    8.4,   0.00,   0.00, 1002.9,    0.0, -999.0
19-12-2022, 00:37:01,    136,    0.0,    8.4,   0.00,   0.00, 1002.8,    0.0, -999.0
19-12-2022, 00:37:11,    171,    0.0,    8.3,   0.00,   0.00, 1002.8,    0.0, -999.0
19-12-2022, 00:37:21,    176,    0.4,    8.4,   0.00,   0.00, 1002.9,    0.0, -999.0
19-12-2022, 00:37:31,    163,    0.1,    8.4,   0.00,   0.00, 1002.9,    0.0, -999.0
19-12-2022, 00:37:41,    159,    0.4,    8.4,   0.00,   0.00, 1002.8,    0.0, -999.0
19-12-2022, 00:37:51,    133,    1.4,    8.5,   0.00,   0.00, 1003.0,    0.0, -999.0
19-12-2022, 00:38:01,    146,    2.8,    8.5,   0.00,   0.00, 1003.0,    0.0, -999.0
19-12-2022, 00:38:11,    152,    2.4,    8.5,   0.00,   0.00, 1003.0,    0.0, -999.0
19-12-2022, 00:38:21,    116,    2.1,    8.5,   0.00,   0.00, 1003.0,    0.0, -999.0
19-12-2022, 00:38:31,    188,    4.4,    8.5,   0.00,   0.00, 1002.9,    0.0, -999.0
19-12-2022, 00:38:41,    182,    3.0,    8.5,   0.00,   0.00, 1003.0,    0.0, -999.0
19-12-2022, 00:38:51,    237,    2.7,    8.6,   0.00,   0.00, 1003.0,    0.0, -999.0
19-12-2022, 00:39:01,    149,    1.9,    8.6,   0.00,   0.00, 1003.0,    0.3, -999.0
19-12-2022, 00:39:10,    164,    1.9,    8.6,   0.00,   0.00, 1003.0,    0.0, -999.0
19-12-2022, 00:39:21,    155,    2.0,    8.6,   0.00,   0.00, 1003.0,    0.0, -999.0
19-12-2022, 00:39:31,    169,    2.2,    8.6,   0.00,   0.00, 1003.0,    0.0, -999.0
19-12-2022, 00:39:40,    191,    1.2,    8.6,   0.00,   0.00, 1003.0,    0.0, -999.0
19-12-2022, 00:39:50,    159,    1.1,    8.5,   0.00,   0.00, 1003.1,    0.0, -999.0
19-12-2022, 00:40:01,    158,    0.8,    8.6,   0.00,   0.00, 1003.0,    0.0, -999.0
19-12-2022, 00:40:11,    171,    1.3,    8.4,   0.00,   0.00, 1002.9,    0.0, -999.0
19-12-2022, 00:40:20,    152,    3.3,    8.6,   0.00,   0.00, 1003.0,    0.0, -999.0
19-12-2022, 00:40:30,    136,    2.2,    8.6,   0.00,   0.00, 1003.0,    0.0, -999.0
19-12-2022, 00:40:41,    200,    0.9,    8.6,   0.00,   0.00, 1003.0,    0.0, -999.0
19-12-2022, 00:40:50,    137,    0.4,    8.5,   0.00,   0.00, 1003.0,    0.0, -999.0
19-12-2022, 00:41:00,    158,    1.2,    8.5,   0.00,   0.00, 1003.0,    0.0, -999.0
19-12-2022, 00:41:11,    167,    1.1,    8.6,   0.00,   0.00, 1003.0,    0.0, -999.0
19-12-2022, 00:41:20,    168,    0.4,    8.5,   0.00,   0.00, 1003.0,    0.0, -999.0
19-12-2022, 00:41:30,    147,    1.7,    8.6,   0.00,   0.00, 1003.0,    0.0, -999.0
19-12-2022, 00:41:40,    167,    1.1,    8.6,   0.00,   0.00, 1003.1,    0.0, -999.0
19-12-2022, 00:41:51,    174,    0.8,    8.6,   0.00,   0.00, 1003.1,    0.0, -999.0
19-12-2022, 00:42:00,    177,    0.4,    8.6,   0.00,   0.00, 1003.0,    0.0, -999.0
19-12-2022, 00:42:10,    179,    0.2,    8.6,   0.00,   0.00, 1003.0,    0.0, -999.0
19-12-2022, 00:42:20,    179,    0.0,    8.5,   0.00,   0.00, 1002.9,    0.0, -999.0
19-12-2022, 00:42:30,    178,    0.0,    8.5,   0.00,   0.00, 1002.9,    0.0, -999.0
19-12-2022, 00:42:40,    180,    0.2,    8.5,   0.00,   0.00, 1003.0,    0.0, -999.0
19-12-2022, 00:42:50,    177,    0.5,    8.5,   0.00,   0.00, 1003.0,    0.0, -999.0
19-12-2022, 00:43:00,    177,    0.0,    8.4,   0.00,   0.00, 1002.8,    0.1, -999.0
19-12-2022, 00:43:10,    154,    2.4,    8.5,   0.00,   0.00, 1003.0,    0.0, -999.0
19-12-2022, 00:43:20,    164,    4.1,    8.6,   0.00,   0.00, 1003.0,    0.0, -999.0
19-12-2022, 00:43:30,    148,    1.8,    8.6,   0.00,   0.00, 1003.0,    0.0, -999.0
19-12-2022, 00:43:40,    172,    2.3,    8.6,   0.00,   0.00, 1003.0,    0.0, -999.0
19-12-2022, 00:43:50,    162,    4.8,    8.6,   0.00,   0.00, 1003.0,    0.0, -999.0
19-12-2022, 00:44:00,    191,    2.0,    8.6,   0.00,   0.00, 1003.0,    0.0, -999.0
19-12-2022, 00:44:10,    154,    1.8,    8.6,   0.00,   0.00, 1003.0,    0.0, -999.0
19-12-2022, 00:44:20,    209,    0.5,    8.6,   0.00,   0.00, 1003.0,    0.0, -999.0
19-12-2022, 00:44:30,    154,    1.2,    8.6,   0.00,   0.00, 1003.0,    0.0, -999.0
19-12-2022, 00:44:40,    199,    0.3,    8.6,   0.00,   0.00, 1002.9,    0.0, -999.0
19-12-2022, 00:44:50,    211,    0.5,    8.6,   0.00,   0.00, 1002.9,    0.0, -999.0
19-12-2022, 00:45:00,    155,    0.5,    8.5,   0.00,   0.00, 1003.0,    0.0, -999.0
19-12-2022, 00:45:10,    133,    1.5,    8.6,   0.00,   0.00, 1003.0,    0.0, -999.0
19-12-2022, 00:45:20,    205,    1.4,    8.6,   0.00,   0.00, 1003.0,    0.0, -999.0
19-12-2022, 00:45:30,    196,    0.6,    8.6,   0.00,   0.00, 1002.9,    0.0, -999.0
19-12-2022, 00:45:40,    162,    0.7,    8.6,   0.00,   0.00, 1003.0,    0.0, -999.0
19-12-2022, 00:45:50,    218,    2.0,    8.6,   0.00,   0.00, 1003.0,    0.0, -999.0
19-12-2022, 00:46:00,    245,    0.6,    8.5,   0.00,   0.00, 1002.9,    0.0, -999.0
19-12-2022, 00:46:10,    152,    0.9,    8.5,   0.00,   0.00, 1003.0,    0.1, -999.0
19-12-2022, 00:46:20,    192,    2.7,    8.6,   0.00,   0.00, 1003.0,    0.0, -999.0
19-12-2022, 00:46:30,    155,    3.1,    8.6,   0.00,   0.00, 1003.0,    0.0, -999.0
19-12-2022, 00:46:40,    186,    1.3,    8.6,   0.00,   0.00, 1002.9,    0.0, -999.0
19-12-2022, 00:46:49,    189,    0.2,    8.6,   0.00,   0.00, 1002.9,    0.0, -999.0